Back to catalog

OPS 9333

IDSCS 18

AliveMilitaryMEO
NORAD 2864·PAYLOAD·🇺🇸 United States

Launched Jul 1, 1967 from Cape Canaveral Space Force Station

Loading…

Next Passes (next 24 hours)

TLE

AgingSource: Space-Track

Epoch: Aug 30, 2026, 19:25 UTC

1  2864U 67066C   26242.80939602 -.00000075  00000-0  00000+0 0  9990
2  2864   2.9526  93.5945 0056682 239.5771 243.1637  1.09785855132361

Track OPS 9333 in real time with AllMySat

Download on the App Store